| time (UTC) | temp F | wind direction | speed MPH | gust MPH | rain 1hr in | rain 24hr in | rain mn in | humidity % | barometer mb |
| 20260503032547 | 51 | 0 | 6.0 | 17.0 | 0.14 | 0.37 | 0.29 | 95 | 1007.3 |
| 20260503032049 | 51 | 34 | 10.0 | 17.0 | 0.15 | 0.37 | 0.28 | 95 | 1007.2 |
| 20260503031807 | 51 | 51 | 8.0 | 13.0 | 0.15 | 0.37 | 0.26 | 95 | 1007.3 |
| 20260503031045 | 51 | 16 | 9.0 | 13.0 | 0.15 | 0.37 | 0.25 | 95 | 1007.4 |
| 20260503030544 | 51 | 41 | 8.0 | 15.0 | 0.15 | 0.37 | 0.24 | 95 | 1007.6 |
| 20260503030042 | 51 | 39 | 7.0 | 15.0 | 0.15 | 0.37 | 0.24 | 95 | 1007.5 |
| 20260503025543 | 51 | 27 | 7.0 | 14.0 | 0.16 | 0.22 | 0.24 | 95 | 1007.5 |
| 20260503025042 | 51 | 8 | 7.0 | 11.0 | 0.16 | 0.22 | 0.23 | 95 | 1007.7 |
| 20260503024543 | 51 | 11 | 8.0 | 12.0 | 0.16 | 0.22 | 0.22 | 95 | 1007.7 |
| 20260503024043 | 51 | 13 | 6.0 | 12.0 | 0.15 | 0.22 | 0.21 | 95 | 1007.8 |
| 20260503023541 | 51 | 1 | 7.0 | 12.0 | 0.13 | 0.22 | 0.19 | 95 | 1007.8 |
| 20260503023038 | 51 | 16 | 6.0 | 12.0 | 0.11 | 0.22 | 0.17 | 95 | 1008.0 |
| 20260503022540 | 51 | 18 | 6.0 | 12.0 | 0.09 | 0.22 | 0.15 | 95 | 1008.0 |
| 20260503022038 | 51 | 35 | 6.0 | 11.0 | 0.06 | 0.22 | 0.13 | 95 | 1008.0 |
| 20260503021537 | 51 | 17 | 4.0 | 11.0 | 0.05 | 0.22 | 0.11 | 95 | 1008.0 |
| 20260503021037 | 51 | 14 | 6.0 | 11.0 | 0.04 | 0.22 | 0.10 | 95 | 1008.1 |
| 20260503020535 | 51 | 17 | 5.0 | 9.0 | 0.04 | 0.22 | 0.09 | 95 | 1008.2 |
| 20260503020035 | 51 | 13 | 6.0 | 10.0 | 0.03 | 0.21 | 0.08 | 95 | 1008.1 |
| 20260503015532 | 51 | 10 | 5.0 | 10.0 | 0.03 | 0.19 | 0.08 | 95 | 1008.1 |
| 20260503015033 | 51 | 16 | 6.0 | 9.0 | 0.02 | 0.19 | 0.07 | 95 | 1008.2 |
| 20260503014800 | 51 | 353 | 3.0 | 7.0 | 0.02 | 0.19 | 0.06 | 94 | 1008.3 |
| 20260503014030 | 51 | 1 | 3.0 | 9.0 | 0.02 | 0.19 | 0.06 | 94 | 1008.3 |
| 20260503013531 | 51 | 1 | 5.0 | 9.0 | 0.02 | 0.19 | 0.06 | 94 | 1008.1 |
| 20260503013031 | 51 | 0 | 4.0 | 9.0 | 0.03 | 0.19 | 0.06 | 94 | 1008.1 |
| 20260503012532 | 51 | 3 | 5.0 | 9.0 | 0.03 | 0.19 | 0.06 | 94 | 1008.1 |
| 20260503012030 | 51 | 0 | 4.0 | 7.0 | 0.03 | 0.19 | 0.06 | 94 | 1008.1 |
| 20260503011531 | 51 | 14 | 3.0 | 9.0 | 0.03 | 0.19 | 0.06 | 94 | 1008.2 |
| 20260503011031 | 51 | 0 | 3.0 | 9.0 | 0.03 | 0.19 | 0.06 | 94 | 1008.4 |
| 20260503010532 | 52 | 0 | 4.0 | 9.0 | 0.02 | 0.19 | 0.06 | 94 | 1008.4 |
| 20260503010039 | 52 | 8 | 5.0 | 9.0 | 0.02 | 0.19 | 0.06 | 94 | 1008.4 |
| 20260503005531 | 52 | 8 | 6.0 | 7.0 | 0.02 | 0.16 | 0.05 | 94 | 1008.5 |
| 20260503005031 | 52 | 14 | 3.0 | 9.0 | 0.02 | 0.16 | 0.05 | 94 | 1008.6 |
| 20260503004531 | 52 | 14 | 4.0 | 9.0 | 0.02 | 0.16 | 0.05 | 94 | 1008.6 |
| 20260503004032 | 52 | 20 | 5.0 | 7.0 | 0.02 | 0.16 | 0.04 | 94 | 1008.8 |
| 20260503003031 | 52 | 0 | 4.0 | 7.0 | 0.02 | 0.16 | 0.03 | 93 | 1008.8 |
| 20260503002532 | 52 | 7 | 4.0 | 6.0 | 0.02 | 0.16 | 0.03 | 93 | 1008.8 |
| 20260503002030 | 52 | 8 | 3.0 | 6.0 | 0.02 | 0.16 | 0.03 | 93 | 1008.8 |
| 20260503001530 | 52 | 17 | 4.0 | 6.0 | 0.02 | 0.16 | 0.03 | 93 | 1008.8 |
| 20260503001031 | 52 | 21 | 4.0 | 7.0 | 0.02 | 0.16 | 0.03 | 93 | 1008.8 |
| 20260503000528 | 52 | 23 | 4.0 | 7.0 | 0.02 | 0.16 | 0.03 | 93 | 1008.9 |
| 20260503000255 | 52 | 96 | 4.0 | 6.0 | 0.02 | 0.16 | 0.02 | 93 | 1009.0 |
| 20260502235528 | 52 | 123 | 3.0 | 5.0 | 0.02 | 0.13 | 0.02 | 93 | 1009.0 |
| 20260502235249 | 52 | 127 | 3.0 | 5.0 | 0.03 | 0.13 | 0.02 | 93 | 1009.0 |
| 20260502234024 | 52 | 127 | 3.0 | 5.0 | 0.05 | 0.13 | 0.02 | 92 | 1009.2 |
| 20260502233524 | 52 | 127 | 3.0 | 5.0 | 0.06 | 0.13 | 0.02 | 92 | 1009.3 |
| 20260502233243 | 52 | 127 | 3.0 | 4.0 | 0.06 | 0.13 | 0.02 | 92 | 1009.3 |
| 20260502232524 | 52 | 127 | 2.0 | 4.0 | 0.08 | 0.13 | 0.02 | 92 | 1009.3 |
| 20260502232023 | 52 | 128 | 2.0 | 4.0 | 0.09 | 0.13 | 0.02 | 92 | 1009.4 |
| 20260502231525 | 53 | 128 | 2.0 | 4.0 | 0.09 | 0.13 | 0.02 | 92 | 1009.5 |
| 20260502231023 | 53 | 128 | 3.0 | 4.0 | 0.08 | 0.13 | 0.01 | 91 | 1009.5 |
| 20260502230744 | 53 | 128 | 2.0 | 4.0 | 0.09 | 0.13 | 0.01 | 91 | 1009.6 |
| 20260502230021 | 53 | 128 | 3.0 | 5.0 | 0.09 | 0.05 | 0.00 | 91 | 1009.7 |
| 20260502225521 | 53 | 128 | 3.0 | 5.0 | 0.09 | 0.05 | 0.13 | 91 | 1009.7 |
| 20260502225021 | 53 | 128 | 2.0 | 4.0 | 0.09 | 0.05 | 0.13 | 90 | 1009.9 |
| 20260502224519 | 53 | 128 | 2.0 | 6.0 | 0.08 | 0.05 | 0.12 | 90 | 1009.8 |
| 20260502224019 | 53 | 128 | 2.0 | 12.0 | 0.07 | 0.05 | 0.11 | 90 | 1010.0 |
| 20260502223741 | 53 | 128 | 4.0 | 12.0 | 0.08 | 0.05 | 0.10 | 89 | 1010.0 |
| 20260502223243 | 53 | 147 | 4.0 | 7.0 | 0.06 | 0.05 | 0.09 | 89 | 1010.0 |
| 20260502222519 | 53 | 7 | 3.0 | 7.0 | 0.06 | 0.05 | 0.07 | 88 | 1009.9 |
| 20260502222016 | 53 | 1 | 3.0 | 9.0 | 0.06 | 0.05 | 0.06 | 88 | 1009.9 |
| 20260502221739 | 53 | 1 | 4.0 | 10.0 | 0.06 | 0.05 | 0.06 | 88 | 1009.9 |
| 20260502221236 | 54 | 0 | 5.0 | 10.0 | 0.06 | 0.05 | 0.06 | 88 | 1009.9 |
| 20260502220512 | 54 | 0 | 4.0 | 7.0 | 0.06 | 0.05 | 0.06 | 87 | 1009.9 |
| 20260502220013 | 54 | 7 | 3.0 | 6.0 | 0.05 | 0.00 | 0.05 | 87 | 1010.0 |
| 20260502215513 | 54 | 18 | 3.0 | 6.0 | 0.05 | 0.00 | 0.05 | 87 | 1010.1 |
| 20260502215012 | 54 | 24 | 3.0 | 5.0 | 0.04 | 0.00 | 0.04 | 86 | 1010.3 |
| 20260502214510 | 55 | 24 | 4.0 | 5.0 | 0.04 | 0.00 | 0.04 | 85 | 1010.2 |
| 20260502214012 | 55 | 30 | 3.0 | 6.0 | 0.04 | 0.00 | 0.04 | 84 | 1010.3 |
| 20260502213510 | 56 | 34 | 4.0 | 6.0 | 0.02 | 0.00 | 0.02 | 83 | 1010.3 |
| 20260502213009 | 56 | 32 | 3.0 | 5.0 | 0.02 | 0.00 | 0.02 | 82 | 1010.3 |
| 20260502212508 | 56 | 30 | 2.0 | 4.0 | 0.02 | 0.00 | 0.02 | 81 | 1010.3 |
| 20260502212010 | 57 | 28 | 3.0 | 5.0 | 0.01 | 0.00 | 0.01 | 80 | 1010.3 |
| 20260502211509 | 57 | 28 | 3.0 | 5.0 | 0.00 | 0.00 | 0.00 | 79 | 1010.3 |
| 20260502211008 | 57 | 24 | 3.0 | 5.0 | 0.00 | 0.00 | 0.00 | 78 | 1010.3 |
| 20260502210507 | 58 | 24 | 4.0 | 5.0 | 0.00 | 0.00 | 0.00 | 77 | 1010.2 |
| 20260502210014 | 58 | 27 | 3.0 | 6.0 | 0.00 | 0.00 | 0.00 | 76 | 1010.3 |
| 20260502205505 | 58 | 25 | 3.0 | 6.0 | 0.00 | 0.00 | 0.00 | 76 | 1010.3 |
| 20260502205004 | 58 | 21 | 2.0 | 4.0 | 0.00 | 0.00 | 0.00 | 76 | 1010.3 |
| 20260502204511 | 58 | 21 | 2.0 | 6.0 | 0.00 | 0.00 | 0.00 | 75 | 1010.3 |
| 20260502204003 | 58 | 21 | 3.0 | 6.0 | 0.00 | 0.00 | 0.00 | 75 | 1010.2 |
| 20260502203503 | 58 | 21 | 4.0 | 6.0 | 0.00 | 0.00 | 0.00 | 75 | 1010.3 |
| 20260502203005 | 58 | 21 | 2.0 | 6.0 | 0.00 | 0.00 | 0.00 | 74 | 1010.3 |
| 20260502202503 | 58 | 35 | 3.0 | 5.0 | 0.00 | 0.00 | 0.00 | 74 | 1010.3 |
| 20260502202002 | 58 | 35 | 3.0 | 5.0 | 0.00 | 0.00 | 0.00 | 74 | 1010.4 |
| 20260502201506 | 58 | 32 | 3.0 | 5.0 | 0.00 | 0.00 | 0.00 | 74 | 1010.4 |
| 20260502201004 | 58 | 32 | 3.0 | 5.0 | 0.00 | 0.00 | 0.00 | 74 | 1010.4 |
| 20260502200503 | 58 | 32 | 4.0 | 5.0 | 0.00 | 0.00 | 0.00 | 74 | 1010.3 |
| 20260502200017 | 58 | 42 | 3.0 | 5.0 | 0.00 | 0.00 | 0.00 | 74 | 1010.3 |
| 20260502195503 | 58 | 42 | 3.0 | 5.0 | 0.00 | 0.00 | 0.00 | 73 | 1010.1 |
| 20260502195004 | 58 | 42 | 3.0 | 5.0 | 0.00 | 0.00 | 0.00 | 73 | 1010.3 |
| 20260502194515 | 58 | 42 | 3.0 | 5.0 | 0.00 | 0.00 | 0.00 | 73 | 1010.2 |
| 20260502193503 | 59 | 42 | 3.0 | 5.0 | 0.00 | 0.00 | 0.00 | 73 | 1010.2 |
| 20260502193009 | 59 | 42 | 3.0 | 5.0 | 0.00 | 0.00 | 0.00 | 73 | 1010.1 |
| 20260502192503 | 59 | 42 | 2.0 | 5.0 | 0.00 | 0.00 | 0.00 | 73 | 1010.1 |
| 20260502192229 | 59 | 42 | 2.0 | 5.0 | 0.00 | 0.00 | 0.00 | 72 | 1010.1 |
| 20260502191510 | 59 | 44 | 3.0 | 6.0 | 0.00 | 0.00 | 0.00 | 72 | 1010.1 |
| 20260502191003 | 59 | 42 | 5.0 | 6.0 | 0.00 | 0.00 | 0.00 | 72 | 1010.1 |
| 20260502190502 | 59 | 30 | 4.0 | 6.0 | 0.00 | 0.00 | 0.00 | 72 | 1010.1 |
| 20260502190012 | 59 | 32 | 4.0 | 6.0 | 0.00 | 0.00 | 0.00 | 71 | 1010.2 |
| 20260502185721 | 60 | 28 | 3.0 | 6.0 | 0.00 | 0.00 | 0.00 | 71 | 1010.2 |
| 20260502185002 | 60 | 25 | 3.0 | 6.0 | 0.00 | 0.00 | 0.00 | 70 | 1010.2 |
| 20260502184506 | 60 | 25 | 3.0 | 6.0 | 0.00 | 0.00 | 0.00 | 70 | 1010.1 |
| 20260502184002 | 60 | 23 | 3.0 | 7.0 | 0.00 | 0.00 | 0.00 | 70 | 1010.1 |
| 20260502183502 | 60 | 21 | 4.0 | 7.0 | 0.00 | 0.00 | 0.00 | 70 | 1010.2 |
| 20260502183004 | 60 | 41 | 3.0 | 5.0 | 0.00 | 0.00 | 0.00 | 70 | 1010.3 |
| 20260502182502 | 60 | 41 | 3.0 | 5.0 | 0.00 | 0.00 | 0.00 | 69 | 1010.4 |
| 20260502182003 | 60 | 41 | 4.0 | 5.0 | 0.00 | 0.00 | 0.00 | 69 | 1010.4 |
| 20260502181502 | 60 | 41 | 3.0 | 6.0 | 0.00 | 0.00 | 0.00 | 68 | 1010.5 |
| 20260502181003 | 60 | 37 | 4.0 | 6.0 | 0.00 | 0.00 | 0.00 | 68 | 1010.5 |
| 20260502180727 | 60 | 45 | 2.0 | 4.0 | 0.00 | 0.00 | 0.00 | 68 | 1010.5 |
| 20260502170453 | 61 | 321 | 2.0 | 5.0 | 0.00 | 0.00 | 0.00 | 65 | 1010.6 |
| 20260502163449 | 62 | 35 | 2.0 | 4.0 | 0.00 | 0.00 | 0.00 | 65 | 1011.0 |
| 20260502162947 | 62 | 34 | 2.0 | 6.0 | 0.00 | 0.00 | 0.00 | 65 | 1011.0 |
| 20260502162447 | 62 | 34 | 2.0 | 6.0 | 0.00 | 0.00 | 0.00 | 64 | 1011.0 |
| 20260502161949 | 62 | 47 | 3.0 | 6.0 | 0.00 | 0.00 | 0.00 | 64 | 1011.1 |
| 20260502161448 | 62 | 351 | 1.0 | 9.0 | 0.00 | 0.00 | 0.00 | 64 | 1011.1 |
| 20260502160947 | 62 | 350 | 2.0 | 9.0 | 0.00 | 0.00 | 0.00 | 64 | 1011.2 |
| 20260502160445 | 63 | 321 | 3.0 | 7.0 | 0.00 | 0.00 | 0.00 | 64 | 1011.2 |
| 20260502151942 | 62 | 248 | 2.0 | 9.0 | 0.00 | 0.00 | 0.00 | 65 | 1011.7 |
| 20260502151442 | 62 | 251 | 6.0 | 9.0 | 0.00 | 0.00 | 0.00 | 64 | 1011.9 |
| 20260502150939 | 62 | 296 | 6.0 | 9.0 | 0.00 | 0.00 | 0.00 | 63 | 1012.0 |
| 20260502150437 | 63 | 259 | 7.0 | 9.0 | 0.00 | 0.00 | 0.00 | 66 | 1012.0 |
| 20260502130432 | 61 | 292 | 7.0 | 11.0 | 0.00 | 0.00 | 0.00 | 70 | 1012.9 |
| 20260502123431 | 60 | 262 | 5.0 | 13.0 | 0.00 | 0.00 | 0.00 | 73 | 1013.3 |
| 20260502122932 | 61 | 293 | 9.0 | 13.0 | 0.00 | 0.00 | 0.00 | 69 | 1013.4 |
| 20260502122432 | 62 | 241 | 8.0 | 12.0 | 0.00 | 0.00 | 0.00 | 70 | 1013.5 |
| 20260502121932 | 60 | 243 | 8.0 | 16.0 | 0.00 | 0.00 | 0.00 | 73 | 1013.6 |
| 20260502121432 | 60 | 252 | 7.0 | 16.0 | 0.00 | 0.00 | 0.00 | 73 | 1013.5 |
| 20260502121156 | 60 | 276 | 7.0 | 14.0 | 0.00 | 0.00 | 0.00 | 72 | 1013.5 |
| 20260502120431 | 62 | 295 | 10.0 | 13.0 | 0.00 | 0.00 | 0.00 | 71 | 1013.6 |
| 20260502115931 | 62 | 290 | 6.0 | 13.0 | 0.00 | 0.00 | 0.00 | 74 | 1013.7 |
| 20260502115431 | 61 | 241 | 6.0 | 15.0 | 0.00 | 0.00 | 0.00 | 72 | 1013.6 |
| 20260502115153 | 60 | 255 | 9.0 | 15.0 | 0.00 | 0.00 | 0.00 | 72 | 1013.6 |
| 20260502114431 | 60 | 220 | 7.0 | 16.0 | 0.00 | 0.00 | 0.00 | 72 | 1013.5 |
| 20260502113931 | 61 | 247 | 10.0 | 16.0 | 0.00 | 0.00 | 0.00 | 73 | 1013.5 |
| 20260502113430 | 61 | 258 | 8.0 | 16.0 | 0.00 | 0.00 | 0.00 | 70 | 1013.5 |
| 20260502112930 | 61 | 244 | 9.0 | 14.0 | 0.00 | 0.00 | 0.00 | 72 | 1013.4 |
| 20260502112430 | 61 | 252 | 8.0 | 16.0 | 0.00 | 0.00 | 0.00 | 72 | 1013.5 |
| 20260502111928 | 60 | 268 | 10.0 | 16.0 | 0.00 | 0.00 | 0.00 | 72 | 1013.5 |
| 20260502111428 | 61 | 202 | 10.0 | 15.0 | 0.00 | 0.00 | 0.00 | 72 | 1013.3 |
| 20260502111151 | 61 | 250 | 8.0 | 15.0 | 0.00 | 0.00 | 0.00 | 72 | 1013.3 |
| 20260502110427 | 60 | 298 | 6.0 | 15.0 | 0.00 | 0.00 | 0.00 | 72 | 1013.3 |
| 20260502105925 | 60 | 258 | 7.0 | 13.0 | 0.00 | 0.00 | 0.00 | 71 | 1013.4 |
| 20260502105426 | 61 | 298 | 5.0 | 13.0 | 0.00 | 0.00 | 0.00 | 72 | 1013.6 |
| 20260502104925 | 60 | 245 | 8.0 | 13.0 | 0.00 | 0.00 | 0.00 | 72 | 1013.7 |
| 20260502104643 | 60 | 286 | 5.0 | 12.0 | 0.00 | 0.00 | 0.00 | 74 | 1013.6 |
| 20260502103924 | 60 | 313 | 6.0 | 13.0 | 0.00 | 0.00 | 0.00 | 72 | 1013.6 |
| 20260502103425 | 60 | 243 | 7.0 | 13.0 | 0.00 | 0.00 | 0.00 | 73 | 1013.7 |
| 20260502103141 | 60 | 278 | 7.0 | 15.0 | 0.00 | 0.00 | 0.00 | 72 | 1013.9 |
| 20260502102423 | 60 | 233 | 7.0 | 15.0 | 0.00 | 0.00 | 0.00 | 73 | 1013.8 |
| 20260502101923 | 60 | 281 | 5.0 | 14.0 | 0.00 | 0.00 | 0.00 | 73 | 1013.9 |
| 20260502101419 | 59 | 317 | 8.0 | 14.0 | 0.00 | 0.00 | 0.00 | 72 | 1013.8 |
| 20260502100919 | 60 | 237 | 6.0 | 15.0 | 0.00 | 0.00 | 0.00 | 73 | 1013.8 |
| 20260502100417 | 60 | 275 | 7.0 | 16.0 | 0.00 | 0.00 | 0.00 | 73 | 1013.7 |
| 20260502100138 | 59 | 250 | 11.0 | 16.0 | 0.00 | 0.00 | 0.00 | 74 | 1013.9 |
| 20260502091415 | 58 | 295 | 7.0 | 13.0 | 0.00 | 0.00 | 0.00 | 75 | 1014.0 |
| 20260502090915 | 58 | 286 | 7.0 | 17.0 | 0.00 | 0.00 | 0.00 | 75 | 1014.0 |
| 20260502090411 | 58 | 319 | 7.0 | 17.0 | 0.00 | 0.00 | 0.00 | 76 | 1014.0 |
| 20260502071403 | 51 | 279 | 6.0 | 13.0 | 0.00 | 0.00 | 0.00 | 87 | 1014.1 |
| 20260502070904 | 51 | 257 | 8.0 | 13.0 | 0.00 | 0.00 | 0.00 | 87 | 1014.1 |
| 20260502070403 | 51 | 271 | 4.0 | 15.0 | 0.00 | 0.00 | 0.00 | 87 | 1014.1 |
| 20260502065903 | 51 | 243 | 7.0 | 15.0 | 0.00 | 0.00 | 0.00 | 87 | 1014.0 |
| 20260502065631 | 51 | 257 | 5.0 | 12.0 | 0.00 | 0.00 | 0.00 | 87 | 1014.0 |
| 20260502064902 | 51 | 261 | 6.0 | 12.0 | 0.00 | 0.00 | 0.00 | 87 | 1014.0 |
| 20260502064404 | 52 | 258 | 7.0 | 12.0 | 0.00 | 0.00 | 0.00 | 87 | 1014.0 |
| 20260502063902 | 51 | 262 | 3.0 | 10.0 | 0.00 | 0.00 | 0.00 | 87 | 1013.9 |
| 20260502062902 | 51 | 262 | 6.0 | 10.0 | 0.00 | 0.00 | 0.00 | 87 | 1014.0 |
| 20260502062630 | 51 | 251 | 3.0 | 7.0 | 0.00 | 0.00 | 0.00 | 87 | 1013.9 |
| 20260502061902 | 51 | 292 | 2.0 | 11.0 | 0.00 | 0.00 | 0.00 | 87 | 1014.0 |
| 20260502061403 | 51 | 288 | 5.0 | 12.0 | 0.00 | 0.00 | 0.00 | 87 | 1014.0 |
| 20260502061128 | 51 | 290 | 8.0 | 12.0 | 0.00 | 0.00 | 0.00 | 87 | 1013.9 |
| 20260502060403 | 51 | 250 | 5.0 | 11.0 | 0.00 | 0.00 | 0.00 | 87 | 1013.9 |
| 20260502055903 | 51 | 298 | 7.0 | 11.0 | 0.00 | 0.00 | 0.00 | 86 | 1013.9 |
| 20260502055402 | 51 | 237 | 7.0 | 15.0 | 0.00 | 0.00 | 0.00 | 86 | 1013.8 |
| 20260502054902 | 51 | 286 | 5.0 | 15.0 | 0.00 | 0.00 | 0.00 | 86 | 1013.9 |
| 20260502054403 | 51 | 244 | 7.0 | 12.0 | 0.00 | 0.00 | 0.00 | 86 | 1013.9 |
| 20260502053902 | 51 | 272 | 6.0 | 10.0 | 0.00 | 0.00 | 0.00 | 86 | 1013.9 |
| 20260502052902 | 51 | 292 | 7.0 | 12.0 | 0.00 | 0.00 | 0.00 | 86 | 1013.9 |
| 20260502052402 | 51 | 305 | 6.0 | 12.0 | 0.00 | 0.00 | 0.00 | 86 | 1014.0 |
| 20260502051903 | 51 | 282 | 5.0 | 12.0 | 0.00 | 0.00 | 0.00 | 86 | 1013.9 |
| 20260502051402 | 51 | 276 | 5.0 | 10.0 | 0.00 | 0.00 | 0.00 | 86 | 1014.0 |
| 20260502050902 | 51 | 286 | 4.0 | 11.0 | 0.00 | 0.00 | 0.00 | 86 | 1014.0 |
| 20260502050402 | 51 | 247 | 6.0 | 11.0 | 0.00 | 0.00 | 0.00 | 86 | 1014.1 |
| 20260502045903 | 51 | 275 | 4.0 | 10.0 | 0.00 | 0.00 | 0.00 | 86 | 1013.9 |
| 20260502045402 | 51 | 293 | 6.0 | 11.0 | 0.00 | 0.00 | 0.00 | 86 | 1014.0 |
| 20260502044902 | 51 | 251 | 7.0 | 12.0 | 0.00 | 0.00 | 0.00 | 86 | 1014.0 |
| 20260502044401 | 51 | 265 | 7.0 | 13.0 | 0.00 | 0.00 | 0.00 | 86 | 1014.0 |
| 20260502043902 | 51 | 197 | 8.0 | 13.0 | 0.00 | 0.00 | 0.00 | 86 | 1014.0 |
| 20260502043619 | 51 | 251 | 7.0 | 12.0 | 0.00 | 0.00 | 0.00 | 86 | 1014.0 |
| 20260502042902 | 51 | 292 | 5.0 | 10.0 | 0.00 | 0.00 | 0.00 | 86 | 1014.1 |
| 20260502042403 | 51 | 285 | 5.0 | 11.0 | 0.00 | 0.00 | 0.00 | 86 | 1014.0 |
| 20260502041903 | 51 | 278 | 5.0 | 11.0 | 0.00 | 0.00 | 0.00 | 87 | 1014.1 |
| 20260502041402 | 51 | 302 | 5.0 | 10.0 | 0.00 | 0.00 | 0.00 | 87 | 1014.1 |
| 20260502040902 | 51 | 276 | 5.0 | 10.0 | 0.00 | 0.00 | 0.00 | 87 | 1014.2 |
| 20260502040402 | 51 | 300 | 4.0 | 12.0 | 0.00 | 0.00 | 0.00 | 87 | 1014.3 |
| 20260502040125 | 51 | 296 | 6.0 | 12.0 | 0.00 | 0.00 | 0.00 | 87 | 1014.3 |
| 20260502035402 | 51 | 286 | 4.0 | 9.0 | 0.00 | 0.00 | 0.00 | 88 | 1014.4 |
| 20260502034902 | 51 | 285 | 4.0 | 6.0 | 0.00 | 0.00 | 0.00 | 88 | 1014.4 |
| 20260502034402 | 51 | 275 | 3.0 | 9.0 | 0.00 | 0.00 | 0.00 | 88 | 1014.3 |
| 20260502033903 | 51 | 275 | 5.0 | 11.0 | 0.00 | 0.00 | 0.00 | 87 | 1014.4 |
| 20260502033630 | 51 | 281 | 6.0 | 11.0 | 0.00 | 0.00 | 0.00 | 87 | 1014.4 |
| 20260502032902 | 51 | 247 | 5.0 | 9.0 | 0.00 | 0.00 | 0.00 | 87 | 1014.3 |